Station History

Weather Underground - logo

Station Historical Data
Daily Summary for January 8, 2018 Units:  English    Metric   Both
« Previous Day
Next Day »
Daily Weekly Monthly Yearly Custom
  High: Low: Average:
Temperature: 63.0 °F 53.8 °F 58.4 °F
Dew Point: 60.0 °F 51.6 °F 56.5 °F
Humidity: 96 % 88 % 93 %
Wind Speed: 4.6 mph 0.0 mph 0.4 mph
Wind Gust: 4.6 mph - -
Wind:- - South
Pressure: 30.00 in 29.63 in -
Precipitation: 0.25 in    
Historical Graphs
 
 
Tabular Data for January 8, 2018
Time Temperature Dew Point Pressure Wind Wind Speed Wind Gust Humidity Rainfall Rate (Hourly)
00:40 55.0 °F 52.1 °F 30.00 in Calm     90 % 0.00 in
01:00 55.1 °F 51.9 °F 29.99 in Calm     89 % 0.00 in
01:06 55.0 °F 51.8 °F 29.99 in Calm     89 % 0.00 in
01:13 54.9 °F 51.7 °F 29.98 in Calm     89 % 0.00 in
01:19 54.9 °F 52.0 °F 29.98 in Calm     90 % 0.00 in
01:24 55.0 °F 52.1 °F 29.98 in Calm     90 % 0.00 in
01:29 54.9 °F 52.0 °F 29.98 in Calm     90 % 0.00 in
01:34 54.9 °F 52.0 °F 29.98 in Calm     90 % 0.00 in
01:39 54.8 °F 51.9 °F 29.98 in Calm     90 % 0.00 in
01:43 54.6 °F 51.7 °F 29.98 in Calm     90 % 0.00 in
01:46 54.5 °F 51.6 °F 29.98 in Calm     90 % 0.00 in
01:52 54.5 °F 51.9 °F 29.98 in Calm     91 % 0.00 in
01:57 54.4 °F 51.8 °F 29.98 in Calm     91 % 0.00 in
01:58 54.3 °F 51.7 °F 29.98 in Calm     91 % 0.00 in
02:04 54.2 °F 51.6 °F 29.97 in Calm     91 % 0.00 in
02:08 54.1 °F 51.8 °F 29.97 in Calm     92 % 0.00 in
02:11 54.0 °F 51.7 °F 29.97 in Calm     92 % 0.00 in
02:16 54.0 °F 51.7 °F 29.97 in Calm     92 % 0.00 in
02:20 54.0 °F 51.7 °F 29.97 in Calm     92 % 0.00 in
02:22 54.0 °F 51.7 °F 29.97 in Calm     92 % 0.00 in
02:27 53.9 °F 51.6 °F 29.97 in Calm     92 % 0.00 in
02:32 53.9 °F 51.6 °F 29.97 in Calm     92 % 0.00 in
02:38 53.8 °F 51.8 °F 29.97 in Calm     93 % 0.00 in
02:43 53.8 °F 51.8 °F 29.96 in Calm     93 % 0.00 in
02:48 53.8 °F 51.8 °F 29.96 in Calm     93 % 0.00 in
02:53 53.9 °F 51.9 °F 29.96 in Calm     93 % 0.00 in
02:57 53.9 °F 51.9 °F 29.96 in Calm     93 % 0.00 in
03:02 54.1 °F 52.1 °F 29.96 in Calm     93 % 0.00 in
03:07 54.1 °F 52.1 °F 29.96 in Calm     93 % 0.00 in
03:09 54.2 °F 52.2 °F 29.96 in Calm     93 % 0.00 in
03:14 54.2 °F 52.2 °F 29.95 in Calm     93 % 0.00 in
03:19 54.3 °F 52.3 °F 29.95 in Calm     93 % 0.00 in
03:24 54.5 °F 52.5 °F 29.95 in Calm     93 % 0.00 in
03:29 54.5 °F 52.5 °F 29.95 in Calm     93 % 0.00 in
03:34 54.6 °F 52.6 °F 29.95 in East 1.2 mph   93 % 0.00 in
03:39 54.7 °F 52.7 °F 29.95 in Calm     93 % 0.00 in
03:45 54.7 °F 52.7 °F 29.95 in Calm     93 % 0.00 in
03:50 54.7 °F 52.7 °F 29.95 in Calm     93 % 0.00 in
03:55 54.7 °F 52.7 °F 29.95 in Calm     93 % 0.00 in
03:58 54.7 °F 53.0 °F 29.94 in Calm     94 % 0.00 in
04:04 54.8 °F 53.1 °F 29.94 in Calm     94 % 0.00 in
04:10 54.7 °F 53.0 °F 29.95 in Calm     94 % 0.00 in
04:15 54.6 °F 52.9 °F 29.94 in Calm     94 % 0.01 in
04:20 54.5 °F 52.8 °F 29.94 in Calm     94 % 0.01 in
04:26 54.4 °F 52.7 °F 29.94 in Calm     94 % 0.01 in
04:31 54.5 °F 52.8 °F 29.94 in Calm     94 % 0.02 in
04:37 54.5 °F 53.1 °F 29.95 in Calm     95 % 0.02 in
04:42 54.5 °F 53.1 °F 29.95 in Calm     95 % 0.02 in
04:46 54.5 °F 53.1 °F 29.95 in Calm     95 % 0.03 in
04:52 54.5 °F 53.1 °F 29.95 in Calm     95 % 0.03 in
04:57 54.5 °F 53.1 °F 29.95 in Calm     95 % 0.04 in
05:04 54.5 °F 53.1 °F 29.95 in Calm     95 % 0.04 in
05:06 54.5 °F 53.1 °F 29.95 in Calm     95 % 0.05 in
05:12 54.5 °F 53.1 °F 29.95 in Calm     95 % 0.04 in
05:15 54.4 °F 53.0 °F 29.95 in Calm     95 % 0.05 in
05:20 54.2 °F 52.8 °F 29.95 in NNW 1.2 mph 1.2 mph 95 % 0.05 in
05:26 54.2 °F 52.5 °F 29.95 in Calm     94 % 0.05 in
05:32 54.3 °F 52.6 °F 29.96 in Calm     94 % 0.04 in
05:37 54.2 °F 52.5 °F 29.96 in Calm     94 % 0.05 in
05:43 54.2 °F 52.5 °F 29.96 in NW 1.2 mph 1.2 mph 94 % 0.05 in
05:50 54.2 °F 52.5 °F 29.97 in NW 1.2 mph 1.2 mph 94 % 0.04 in
05:55 54.1 °F 52.7 °F 29.97 in NW 1.2 mph   95 % 0.05 in
05:59 54.1 °F 52.7 °F 29.97 in North 1.2 mph 1.2 mph 95 % 0.04 in
06:02 54.1 °F 52.7 °F 29.97 in WNW 1.2 mph 1.2 mph 95 % 0.04 in
06:07 54.1 °F 52.4 °F 29.98 in Calm     94 % 0.04 in
06:10 54.0 °F 52.3 °F 29.98 in Calm     94 % 0.04 in
06:15 54.0 °F 52.3 °F 29.98 in Calm     94 % 0.04 in
06:21 54.1 °F 52.4 °F 29.98 in Calm     94 % 0.03 in
06:27 54.1 °F 52.4 °F 29.98 in WNW 1.2 mph   94 % 0.04 in
06:31 54.1 °F 52.7 °F 29.98 in Calm     95 % 0.04 in
06:37 54.1 °F 52.7 °F 29.97 in NW 1.2 mph 1.2 mph 95 % 0.03 in
06:42 54.0 °F 52.6 °F 29.97 in Calm     95 % 0.03 in
06:47 54.0 °F 52.6 °F 29.97 in WNW 1.2 mph 1.2 mph 95 % 0.03 in
06:54 54.0 °F 52.3 °F 29.97 in Calm   0.1 mph 94 % 0.03 in
07:00 54.0 °F 52.3 °F 29.97 in WNW 1.2 mph 1.2 mph 94 % 0.03 in
07:06 54.1 °F 52.1 °F 29.96 in Calm     93 % 0.02 in
07:12 54.1 °F 52.1 °F 29.96 in Calm     93 % 0.02 in
07:18 54.0 °F 52.0 °F 29.96 in Calm     93 % 0.02 in
07:23 54.0 °F 52.0 °F 29.96 in Calm     93 % 0.02 in
07:28 54.0 °F 52.0 °F 29.96 in Calm     93 % 0.01 in
07:34 54.0 °F 52.0 °F 29.96 in Calm     93 % 0.01 in
07:39 54.0 °F 52.0 °F 29.96 in Calm     93 % 0.01 in
07:41 54.0 °F 52.3 °F 29.96 in Calm     94 % 0.01 in
07:46 54.1 °F 52.4 °F 29.95 in Calm     94 % 0.01 in
07:54 54.3 °F 52.6 °F 29.96 in Calm     94 % 0.00 in
07:55 54.4 °F 52.7 °F 29.96 in Calm     94 % 0.00 in
08:00 54.4 °F 52.7 °F 29.95 in Calm     94 % 0.00 in
08:07 54.5 °F 53.1 °F 29.95 in Calm     95 % 0.00 in
08:13 54.7 °F 53.3 °F 29.95 in SE 1.2 mph 1.2 mph 95 % 0.00 in
08:19 54.9 °F 53.5 °F 29.95 in ESE 1.2 mph   95 % 0.00 in
08:25 55.0 °F 53.6 °F 29.95 in East 1.0 mph 1.0 mph 95 % 0.00 in
08:30 55.1 °F 53.7 °F 29.95 in East 1.2 mph   95 % 0.00 in
08:35 55.1 °F 53.7 °F 29.95 in Calm     95 % 0.00 in
08:42 55.2 °F 53.8 °F 29.95 in Calm     95 % 0.00 in
08:43 55.2 °F 53.8 °F 29.95 in Calm     95 % 0.00 in
08:46 55.3 °F 54.2 °F 29.95 in Calm     96 % 0.00 in
08:48 55.3 °F 54.2 °F 29.95 in Calm     96 % 0.00 in
08:53 55.4 °F 54.3 °F 29.95 in Calm     96 % 0.00 in
08:59 55.5 °F 54.4 °F 29.95 in Calm     96 % 0.01 in
09:04 55.6 °F 54.5 °F 29.95 in Calm     96 % 0.01 in
09:06 55.6 °F 54.5 °F 29.94 in Calm     96 % 0.01 in
09:11 55.8 °F 54.7 °F 29.95 in Calm     96 % 0.01 in
09:16 55.9 °F 54.8 °F 29.94 in Calm     96 % 0.01 in
09:20 56.1 °F 55.0 °F 29.94 in Calm     96 % 0.01 in
09:23 56.1 °F 55.0 °F 29.94 in Calm     96 % 0.01 in
09:28 56.2 °F 55.1 °F 29.94 in Calm     96 % 0.01 in
09:29 56.2 °F 55.1 °F 29.94 in Calm     96 % 0.01 in
09:34 56.3 °F 55.2 °F 29.94 in East 1.2 mph 1.2 mph 96 % 0.01 in
09:36 56.4 °F 55.3 °F 29.94 in Calm     96 % 0.01 in
09:41 56.5 °F 55.4 °F 29.94 in NNW 1.0 mph 1.0 mph 96 % 0.01 in
09:44 56.6 °F 55.5 °F 29.93 in NNW 1.2 mph   96 % 0.01 in
09:49 56.7 °F 55.6 °F 29.93 in Calm     96 % 0.02 in
09:54 57.0 °F 55.9 °F 29.93 in Calm     96 % 0.02 in
10:00 57.2 °F 56.1 °F 29.93 in Calm     96 % 0.01 in
10:03 57.3 °F 56.2 °F 29.93 in Calm     96 % 0.01 in
10:08 57.4 °F 56.0 °F 29.93 in Calm     95 % 0.01 in
10:12 57.6 °F 56.2 °F 29.93 in Calm     95 % 0.01 in
10:14 57.6 °F 56.2 °F 29.93 in Calm     95 % 0.01 in
10:19 57.8 °F 56.4 °F 29.92 in NNW 1.2 mph 1.2 mph 95 % 0.01 in
10:23 57.9 °F 56.2 °F 29.92 in NW 1.2 mph 1.2 mph 94 % 0.01 in
10:25 58.0 °F 56.3 °F 29.92 in NW 1.2 mph   94 % 0.01 in
10:30 58.2 °F 56.5 °F 29.92 in Calm     94 % 0.01 in
10:32 58.3 °F 56.6 °F 29.92 in Calm     94 % 0.01 in
10:33 58.3 °F 56.6 °F 29.92 in Calm     94 % 0.01 in
10:39 58.5 °F 56.5 °F 29.92 in Calm     93 % 0.01 in
10:44 58.6 °F 56.6 °F 29.92 in Calm     93 % 0.01 in
10:49 58.7 °F 56.7 °F 29.91 in Calm     93 % 0.00 in
10:54 58.8 °F 56.8 °F 29.91 in Calm     93 % 0.00 in
10:59 58.9 °F 56.9 °F 29.91 in Calm     93 % 0.00 in
11:04 59.0 °F 57.0 °F 29.91 in Calm     93 % 0.00 in
11:10 59.1 °F 57.1 °F 29.90 in Calm     93 % 0.00 in
11:16 59.3 °F 57.3 °F 29.90 in Calm     93 % 0.01 in
11:20 59.5 °F 57.5 °F 29.89 in Calm     93 % 0.01 in
11:26 59.7 °F 57.7 °F 29.89 in Calm     93 % 0.01 in
11:30 59.8 °F 58.1 °F 29.88 in Calm     94 % 0.01 in
11:35 60.0 °F 58.0 °F 29.88 in Calm     93 % 0.01 in
11:40 60.1 °F 58.1 °F 29.89 in Calm     93 % 0.01 in
11:45 60.2 °F 58.2 °F 29.88 in Calm     93 % 0.01 in
11:50 60.3 °F 58.3 °F 29.88 in NW 1.2 mph   93 % 0.01 in
11:56 60.3 °F 58.3 °F 29.88 in Calm     93 % 0.01 in
12:01 60.3 °F 58.3 °F 29.88 in Calm     93 % 0.01 in
12:06 60.4 °F 58.4 °F 29.88 in NW 1.2 mph   93 % 0.01 in
12:12 60.4 °F 58.4 °F 29.87 in WNW 2.3 mph 2.3 mph 93 % 0.01 in
12:17 60.4 °F 58.4 °F 29.87 in Calm     93 % 0.00 in
12:25 60.4 °F 58.4 °F 29.87 in Calm     93 % 0.00 in
12:30 60.3 °F 58.0 °F 29.86 in Calm     92 % 0.00 in
12:36 60.1 °F 57.8 °F 29.86 in Calm     92 % 0.00 in
12:41 60.1 °F 58.1 °F 29.85 in Calm     93 % 0.00 in
12:52 60.2 °F 58.2 °F 29.85 in Calm     93 % 0.00 in
13:05 60.3 °F 58.3 °F 29.84 in Calm     93 % 0.00 in
13:13 60.3 °F 58.0 °F 29.83 in NW 2.0 mph 2.0 mph 92 % 0.00 in
13:20 60.5 °F 58.5 °F 29.82 in NW 2.0 mph 2.0 mph 93 % 0.01 in
13:26 60.8 °F 58.8 °F 29.82 in WNW 2.3 mph 2.3 mph 93 % 0.01 in
13:31 60.9 °F 58.6 °F 29.83 in WNW 1.0 mph 1.0 mph 92 % 0.01 in
13:33 60.9 °F 58.6 °F 29.82 in WNW 1.2 mph 1.2 mph 92 % 0.01 in
13:39 61.1 °F 58.5 °F 29.82 in NW 4.6 mph 4.6 mph 91 % 0.01 in
13:43 61.3 °F 58.7 °F 29.82 in NW 2.3 mph 2.3 mph 91 % 0.01 in
13:48 61.4 °F 58.4 °F 29.81 in NW 2.3 mph 2.3 mph 90 % 0.01 in
13:53 61.8 °F 58.8 °F 29.81 in NW 2.3 mph 2.3 mph 90 % 0.01 in
13:59 62.0 °F 58.7 °F 29.80 in NE 3.5 mph 3.5 mph 89 % 0.01 in
14:04 62.1 °F 59.1 °F 29.80 in North 3.0 mph 3.0 mph 90 % 0.01 in
14:09 62.1 °F 59.1 °F 29.80 in NNW 3.5 mph 3.5 mph 90 % 0.01 in
14:12 62.1 °F 59.1 °F 29.80 in NW 3.5 mph 3.5 mph 90 % 0.01 in
14:17 62.1 °F 58.8 °F 29.80 in NNW 2.3 mph 2.3 mph 89 % 0.00 in
14:23 62.1 °F 59.1 °F 29.79 in NW 1.2 mph 1.2 mph 90 % 0.00 in
14:28 62.1 °F 58.8 °F 29.79 in WNW 3.5 mph 3.5 mph 89 % 0.00 in
14:34 62.2 °F 58.9 °F 29.79 in WNW 3.5 mph 3.5 mph 89 % 0.00 in
14:40 62.4 °F 59.1 °F 29.79 in NNW 3.5 mph 3.5 mph 89 % 0.00 in
14:46 62.6 °F 59.3 °F 29.78 in NW 2.3 mph 2.3 mph 89 % 0.00 in
14:53 62.7 °F 59.4 °F 29.78 in NW 3.5 mph 3.5 mph 89 % 0.00 in
14:54 62.7 °F 59.4 °F 29.78 in NW 3.5 mph 3.5 mph 89 % 0.00 in
14:56 62.8 °F 59.5 °F 29.78 in NW 2.3 mph 2.3 mph 89 % 0.00 in
14:57 62.7 °F 59.4 °F 29.78 in North 2.3 mph 2.3 mph 89 % 0.00 in
14:58 62.7 °F 59.4 °F 29.78 in WNW 2.3 mph 2.3 mph 89 % 0.00 in
15:00 62.8 °F 59.5 °F 29.77 in WNW 2.3 mph 2.3 mph 89 % 0.00 in
15:01 62.7 °F 59.4 °F 29.77 in NW 1.2 mph 1.2 mph 89 % 0.00 in
15:03 62.8 °F 59.5 °F 29.77 in NW 1.2 mph 1.2 mph 89 % 0.00 in
15:08 62.8 °F 59.2 °F 29.78 in Calm   0.2 mph 88 % 0.00 in
15:11 62.9 °F 59.3 °F 29.78 in WNW 1.2 mph 1.2 mph 88 % 0.00 in
15:13 62.9 °F 59.3 °F 29.78 in WNW 1.2 mph   88 % 0.00 in
15:17 63.0 °F 59.4 °F 29.78 in Calm     88 % 0.00 in
15:18 63.0 °F 59.4 °F 29.78 in Calm     88 % 0.00 in
15:19 63.0 °F 59.4 °F 29.78 in Calm     88 % 0.00 in
15:23 62.9 °F 59.6 °F 29.78 in Calm     89 % 0.00 in
15:28 62.8 °F 59.5 °F 29.78 in Calm     89 % 0.00 in
15:32 62.6 °F 59.6 °F 29.78 in Calm     90 % 0.00 in
15:36 62.4 °F 59.4 °F 29.78 in SW 1.2 mph 1.2 mph 90 % 0.01 in
15:38 62.4 °F 59.7 °F 29.79 in East 1.2 mph 1.2 mph 91 % 0.01 in
15:40 62.2 °F 59.5 °F 29.79 in East 1.2 mph   91 % 0.01 in
15:44 62.0 °F 59.6 °F 29.79 in East 1.2 mph   92 % 0.02 in
15:48 61.8 °F 59.8 °F 29.79 in Calm     93 % 0.02 in
15:50 61.7 °F 59.7 °F 29.79 in East 1.2 mph 1.2 mph 93 % 0.02 in
15:51 61.7 °F 59.7 °F 29.79 in East 1.2 mph   93 % 0.02 in
15:53 61.6 °F 59.9 °F 29.79 in Calm   0.1 mph 94 % 0.03 in
15:55 61.6 °F 59.9 °F 29.79 in Calm     94 % 0.03 in
15:59 61.6 °F 59.9 °F 29.79 in East 2.3 mph 2.3 mph 94 % 0.03 in
16:03 61.5 °F 59.8 °F 29.79 in East 2.3 mph 2.3 mph 94 % 0.03 in
16:04 61.5 °F 59.8 °F 29.79 in East 1.2 mph 1.2 mph 94 % 0.04 in
16:05 61.4 °F 60.0 °F 29.80 in East 1.2 mph 1.2 mph 95 % 0.04 in
16:10 61.4 °F 60.0 °F 29.79 in East 1.2 mph   95 % 0.04 in
16:11 61.3 °F 59.9 °F 29.79 in East 1.2 mph 1.2 mph 95 % 0.04 in
16:13 61.3 °F 59.9 °F 29.79 in East 1.2 mph 1.2 mph 95 % 0.05 in
16:14 61.3 °F 59.9 °F 29.79 in East 1.2 mph 1.2 mph 95 % 0.05 in
16:15 61.3 °F 59.9 °F 29.79 in East 1.2 mph 1.2 mph 95 % 0.05 in
16:16 61.3 °F 59.9 °F 29.79 in East 1.2 mph 1.2 mph 95 % 0.05 in
16:18 61.3 °F 59.9 °F 29.79 in East 1.2 mph 1.2 mph 95 % 0.05 in
16:20 61.3 °F 59.9 °F 29.79 in East 1.2 mph   95 % 0.05 in
16:21 61.2 °F 59.8 °F 29.79 in East 1.2 mph 1.2 mph 95 % 0.05 in
16:23 61.2 °F 59.8 °F 29.79 in Calm     95 % 0.05 in
16:24 61.2 °F 59.8 °F 29.79 in East 1.2 mph   95 % 0.05 in
16:25 61.2 °F 59.8 °F 29.79 in East 1.2 mph   95 % 0.05 in
16:30 61.1 °F 59.7 °F 29.79 in East 1.2 mph 1.2 mph 95 % 0.06 in
16:33 61.1 °F 59.7 °F 29.80 in East 1.2 mph 1.2 mph 95 % 0.06 in
16:36 61.0 °F 59.6 °F 29.79 in East 1.2 mph 1.2 mph 95 % 0.05 in
16:38 60.9 °F 59.5 °F 29.79 in East 1.2 mph 1.2 mph 95 % 0.05 in
16:43 60.8 °F 59.4 °F 29.79 in ESE 2.3 mph 2.3 mph 95 % 0.05 in
16:49 60.7 °F 59.3 °F 29.79 in ESE 1.2 mph 1.2 mph 95 % 0.04 in
16:50 60.7 °F 59.3 °F 29.79 in SE 1.2 mph 1.2 mph 95 % 0.05 in
16:53 60.6 °F 58.9 °F 29.79 in ESE 1.2 mph 1.2 mph 94 % 0.04 in
16:55 60.6 °F 58.9 °F 29.79 in SE 1.2 mph 1.2 mph 94 % 0.04 in
16:57 60.5 °F 58.8 °F 29.79 in SE 1.2 mph   94 % 0.04 in
16:58 60.5 °F 58.8 °F 29.79 in SE 1.2 mph 1.2 mph 94 % 0.04 in
16:59 60.5 °F 58.8 °F 29.78 in ESE 2.3 mph   94 % 0.04 in
17:01 60.5 °F 58.8 °F 29.78 in SE 1.0 mph   94 % 0.04 in
17:03 60.5 °F 58.8 °F 29.78 in Calm     94 % 0.03 in
17:04 60.5 °F 58.8 °F 29.78 in Calm     94 % 0.03 in
17:05 60.5 °F 58.8 °F 29.78 in Calm     94 % 0.03 in
17:06 60.5 °F 58.8 °F 29.78 in Calm     94 % 0.03 in
17:07 60.5 °F 58.8 °F 29.78 in Calm     94 % 0.03 in
17:09 60.4 °F 58.7 °F 29.78 in Calm     94 % 0.03 in
17:10 60.4 °F 58.7 °F 29.78 in Calm     94 % 0.03 in
17:11 60.4 °F 58.7 °F 29.78 in Calm     94 % 0.03 in
17:12 60.4 °F 58.7 °F 29.78 in East 1.2 mph 1.2 mph 94 % 0.03 in
17:14 60.3 °F 58.6 °F 29.78 in East 1.2 mph 1.2 mph 94 % 0.02 in
17:15 60.4 °F 58.7 °F 29.78 in SE 1.2 mph 1.2 mph 94 % 0.02 in
17:17 60.3 °F 58.6 °F 29.78 in East 1.2 mph   94 % 0.02 in
17:18 60.3 °F 58.6 °F 29.78 in East 1.2 mph   94 % 0.02 in
17:19 60.3 °F 58.6 °F 29.77 in Calm     94 % 0.02 in
17:20 60.3 °F 58.6 °F 29.77 in Calm     94 % 0.02 in
17:23 60.3 °F 58.6 °F 29.77 in SE 1.2 mph 1.2 mph 94 % 0.03 in
17:24 60.2 °F 58.5 °F 29.77 in SE 1.2 mph 1.2 mph 94 % 0.03 in
17:26 60.2 °F 58.5 °F 29.77 in Calm     94 % 0.03 in
17:27 60.1 °F 58.4 °F 29.77 in ENE 1.2 mph 1.2 mph 94 % 0.03 in
17:28 60.1 °F 58.4 °F 29.77 in ENE 1.2 mph 1.2 mph 94 % 0.03 in
17:30 60.1 °F 58.4 °F 29.77 in ENE 1.2 mph 1.2 mph 94 % 0.02 in
17:31 60.2 °F 58.5 °F 29.77 in ESE 2.3 mph 2.3 mph 94 % 0.02 in
17:32 60.2 °F 58.5 °F 29.77 in ESE 2.3 mph 2.3 mph 94 % 0.02 in
17:33 60.3 °F 58.6 °F 29.77 in East 2.3 mph 2.3 mph 94 % 0.02 in
17:34 60.3 °F 58.6 °F 29.77 in East 2.3 mph 2.3 mph 94 % 0.02 in
17:37 60.5 °F 58.5 °F 29.76 in SE 2.0 mph 2.0 mph 93 % 0.02 in
17:43 60.6 °F 58.3 °F 29.76 in SE 1.2 mph 1.2 mph 92 % 0.02 in
17:45 60.6 °F 58.3 °F 29.77 in East 2.3 mph 2.3 mph 92 % 0.02 in
17:48 60.7 °F 58.4 °F 29.76 in ESE 2.3 mph 2.3 mph 92 % 0.02 in
17:52 60.7 °F 58.4 °F 29.76 in ESE 2.3 mph 2.3 mph 92 % 0.01 in
17:54 60.8 °F 58.2 °F 29.76 in East 2.0 mph 2.0 mph 91 % 0.01 in
17:56 60.9 °F 58.3 °F 29.76 in East 2.0 mph 2.0 mph 91 % 0.01 in
17:58 60.9 °F 58.3 °F 29.76 in ESE 1.2 mph 1.2 mph 91 % 0.01 in
18:01 61.0 °F 58.4 °F 29.76 in East 1.2 mph   91 % 0.02 in
18:03 61.0 °F 58.4 °F 29.76 in ESE 1.0 mph 1.0 mph 91 % 0.02 in
18:07 60.9 °F 58.3 °F 29.76 in Calm     91 % 0.02 in
18:09 60.8 °F 58.2 °F 29.76 in Calm     91 % 0.02 in
18:12 60.7 °F 58.4 °F 29.76 in Calm     92 % 0.02 in
18:15 60.6 °F 58.3 °F 29.76 in Calm     92 % 0.02 in
18:18 60.5 °F 58.2 °F 29.76 in Calm     92 % 0.03 in
18:20 60.4 °F 58.1 °F 29.76 in Calm     92 % 0.03 in
18:22 60.3 °F 58.0 °F 29.76 in Calm     92 % 0.02 in
18:23 60.3 °F 58.0 °F 29.76 in Calm     92 % 0.02 in
18:24 60.2 °F 57.9 °F 29.76 in Calm     92 % 0.02 in
18:25 60.1 °F 57.8 °F 29.75 in Calm     92 % 0.02 in
18:26 60.1 °F 57.8 °F 29.75 in Calm     92 % 0.02 in
18:27 60.1 °F 58.1 °F 29.75 in Calm     93 % 0.02 in
18:28 60.0 °F 58.0 °F 29.75 in Calm     93 % 0.02 in
18:29 60.0 °F 58.0 °F 29.76 in Calm     93 % 0.02 in
18:30 59.9 °F 57.9 °F 29.75 in Calm     93 % 0.02 in
18:31 59.9 °F 57.9 °F 29.75 in Calm     93 % 0.02 in
18:32 59.9 °F 57.9 °F 29.75 in Calm     93 % 0.02 in
18:33 59.9 °F 57.9 °F 29.75 in Calm     93 % 0.02 in
18:34 59.8 °F 57.8 °F 29.75 in Calm     93 % 0.02 in
18:35 59.8 °F 57.8 °F 29.75 in Calm     93 % 0.02 in
18:37 59.8 °F 57.8 °F 29.75 in Calm     93 % 0.02 in
18:38 59.8 °F 57.8 °F 29.75 in Calm     93 % 0.02 in
18:39 59.8 °F 57.8 °F 29.75 in Calm     93 % 0.02 in
18:40 59.8 °F 57.8 °F 29.75 in Calm     93 % 0.02 in
18:41 59.8 °F 57.8 °F 29.75 in Calm     93 % 0.02 in
18:42 59.7 °F 57.7 °F 29.75 in Calm     93 % 0.02 in
18:43 59.7 °F 57.7 °F 29.75 in Calm     93 % 0.02 in
18:44 59.7 °F 58.0 °F 29.75 in Calm     94 % 0.02 in
18:45 59.7 °F 58.0 °F 29.75 in Calm     94 % 0.02 in
18:46 59.7 °F 58.0 °F 29.75 in Calm     94 % 0.02 in
18:50 59.6 °F 57.9 °F 29.75 in Calm     94 % 0.02 in
18:53 59.5 °F 57.8 °F 29.74 in Calm     94 % 0.02 in
18:55 59.5 °F 57.8 °F 29.74 in Calm     94 % 0.02 in
18:57 59.5 °F 57.8 °F 29.74 in Calm     94 % 0.02 in
18:58 59.5 °F 57.8 °F 29.74 in Calm     94 % 0.02 in
18:59 59.5 °F 57.8 °F 29.74 in Calm     94 % 0.02 in
19:00 59.5 °F 57.8 °F 29.74 in Calm     94 % 0.01 in
19:01 59.5 °F 57.8 °F 29.74 in Calm     94 % 0.01 in
19:02 59.5 °F 57.8 °F 29.74 in Calm     94 % 0.01 in
19:03 59.5 °F 57.8 °F 29.74 in Calm     94 % 0.01 in
19:05 59.4 °F 57.7 °F 29.74 in Calm     94 % 0.01 in
19:06 59.4 °F 57.7 °F 29.74 in Calm     94 % 0.01 in
19:07 59.4 °F 57.7 °F 29.74 in Calm     94 % 0.01 in
19:08 59.4 °F 57.7 °F 29.74 in Calm     94 % 0.01 in
19:10 59.4 °F 57.7 °F 29.74 in Calm     94 % 0.01 in
19:11 59.4 °F 58.0 °F 29.74 in Calm     95 % 0.01 in
19:12 59.4 °F 58.0 °F 29.74 in Calm     95 % 0.01 in
19:13 59.4 °F 58.0 °F 29.74 in Calm     95 % 0.01 in
19:15 59.4 °F 58.0 °F 29.74 in ESE 1.2 mph   95 % 0.01 in
19:16 59.3 °F 57.9 °F 29.74 in Calm     95 % 0.01 in
19:17 59.3 °F 57.9 °F 29.74 in Calm     95 % 0.00 in
19:18 59.3 °F 57.9 °F 29.74 in Calm     95 % 0.00 in
19:19 59.3 °F 57.9 °F 29.74 in Calm     95 % 0.00 in
19:21 59.3 °F 57.9 °F 29.74 in Calm     95 % 0.00 in
19:23 59.2 °F 57.8 °F 29.74 in Calm     95 % 0.00 in
19:24 59.2 °F 57.8 °F 29.74 in Calm     95 % 0.00 in
19:25 59.2 °F 57.8 °F 29.74 in Calm   0.2 mph 95 % 0.00 in
19:26 59.3 °F 57.9 °F 29.74 in ESE 1.2 mph   95 % 0.00 in
19:27 59.3 °F 57.9 °F 29.74 in Calm     95 % 0.00 in
19:28 59.3 °F 57.9 °F 29.74 in Calm     95 % 0.00 in
19:29 59.3 °F 57.9 °F 29.74 in Calm     95 % 0.00 in
19:30 59.3 °F 57.9 °F 29.74 in Calm     95 % 0.00 in
19:33 59.2 °F 57.8 °F 29.74 in Calm     95 % 0.00 in
19:34 59.2 °F 57.8 °F 29.74 in Calm     95 % 0.00 in
19:36 59.1 °F 57.7 °F 29.74 in Calm     95 % 0.00 in
19:38 59.1 °F 57.7 °F 29.74 in Calm     95 % 0.00 in
19:39 59.1 °F 57.7 °F 29.74 in Calm     95 % 0.00 in
19:41 59.1 °F 57.7 °F 29.74 in Calm     95 % 0.00 in
19:42 59.0 °F 57.6 °F 29.74 in Calm     95 % 0.00 in
19:46 59.0 °F 57.6 °F 29.74 in Calm     95 % 0.00 in
19:48 59.0 °F 57.6 °F 29.74 in Calm     95 % 0.00 in
19:49 58.9 °F 57.5 °F 29.74 in Calm     95 % 0.00 in
19:51 58.8 °F 57.4 °F 29.74 in Calm     95 % 0.00 in
19:52 58.8 °F 57.4 °F 29.74 in Calm     95 % 0.00 in
19:55 58.7 °F 57.3 °F 29.74 in Calm     95 % 0.00 in
19:59 58.8 °F 57.4 °F 29.74 in ESE 1.2 mph 1.2 mph 95 % 0.00 in
20:00 58.8 °F 57.4 °F 29.74 in Calm   0.1 mph 95 % 0.00 in
20:01 58.8 °F 57.4 °F 29.74 in East 2.3 mph 2.3 mph 95 % 0.00 in
20:02 58.9 °F 57.5 °F 29.74 in East 2.3 mph 2.3 mph 95 % 0.00 in
20:03 59.0 °F 57.6 °F 29.74 in East 1.2 mph   95 % 0.00 in
20:04 59.0 °F 57.6 °F 29.74 in Calm     95 % 0.00 in
20:05 59.0 °F 57.3 °F 29.74 in Calm     94 % 0.00 in
20:06 59.0 °F 57.3 °F 29.74 in Calm     94 % 0.00 in
20:09 59.0 °F 57.3 °F 29.73 in Calm     94 % 0.00 in
20:11 59.0 °F 57.3 °F 29.73 in Calm     94 % 0.00 in
20:12 59.0 °F 57.3 °F 29.73 in Calm     94 % 0.00 in
20:13 59.0 °F 57.3 °F 29.73 in Calm     94 % 0.00 in
20:14 59.0 °F 57.3 °F 29.73 in Calm     94 % 0.00 in
20:15 59.0 °F 57.3 °F 29.73 in Calm     94 % 0.00 in
20:16 59.0 °F 57.3 °F 29.73 in Calm     94 % 0.00 in
20:17 59.0 °F 57.3 °F 29.73 in Calm     94 % 0.00 in
20:18 59.0 °F 57.3 °F 29.73 in Calm     94 % 0.00 in
20:19 59.0 °F 57.3 °F 29.73 in Calm     94 % 0.00 in
20:20 59.0 °F 57.3 °F 29.73 in Calm     94 % 0.00 in
20:21 59.0 °F 57.3 °F 29.73 in Calm     94 % 0.00 in
20:22 59.0 °F 57.3 °F 29.73 in Calm     94 % 0.00 in
20:23 59.0 °F 57.3 °F 29.73 in Calm     94 % 0.00 in
20:27 59.0 °F 57.3 °F 29.73 in Calm     94 % 0.00 in
20:28 59.0 °F 57.3 °F 29.73 in East 1.0 mph   94 % 0.00 in
20:29 59.0 °F 57.3 °F 29.72 in Calm     94 % 0.00 in
20:30 59.0 °F 57.3 °F 29.72 in Calm     94 % 0.00 in
20:31 59.0 °F 57.3 °F 29.72 in Calm     94 % 0.00 in
20:36 59.0 °F 57.3 °F 29.72 in Calm     94 % 0.00 in
20:37 59.0 °F 57.3 °F 29.72 in Calm     94 % 0.00 in
20:38 59.0 °F 57.3 °F 29.72 in Calm     94 % 0.00 in
20:41 58.9 °F 57.2 °F 29.72 in Calm     94 % 0.00 in
20:43 58.8 °F 57.1 °F 29.71 in Calm     94 % 0.00 in
20:45 58.8 °F 57.1 °F 29.71 in Calm     94 % 0.00 in
20:46 58.7 °F 57.0 °F 29.71 in Calm     94 % 0.00 in
20:47 58.7 °F 57.0 °F 29.71 in Calm     94 % 0.00 in
20:48 58.7 °F 57.0 °F 29.71 in Calm     94 % 0.00 in
20:49 58.6 °F 56.9 °F 29.71 in Calm     94 % 0.00 in
20:50 58.6 °F 56.9 °F 29.71 in Calm     94 % 0.00 in
20:51 58.6 °F 56.9 °F 29.71 in Calm     94 % 0.00 in
20:52 58.7 °F 57.0 °F 29.71 in Calm     94 % 0.00 in
20:54 58.7 °F 57.0 °F 29.71 in Calm     94 % 0.00 in
20:56 58.7 °F 57.0 °F 29.71 in Calm     94 % 0.00 in
20:57 58.7 °F 57.0 °F 29.71 in Calm     94 % 0.00 in
20:58 58.7 °F 57.0 °F 29.71 in Calm     94 % 0.00 in
20:59 58.7 °F 57.0 °F 29.71 in Calm     94 % 0.00 in
21:00 58.7 °F 57.0 °F 29.71 in Calm     94 % 0.00 in
21:01 58.8 °F 57.1 °F 29.71 in Calm     94 % 0.00 in
21:03 58.7 °F 57.0 °F 29.71 in Calm     94 % 0.00 in
21:05 58.7 °F 57.0 °F 29.71 in NNE 1.2 mph 1.2 mph 94 % 0.00 in
21:06 58.8 °F 57.1 °F 29.71 in NNE 1.2 mph   94 % 0.00 in
21:07 58.8 °F 57.1 °F 29.71 in Calm     94 % 0.00 in
21:11 58.8 °F 57.1 °F 29.71 in Calm     94 % 0.00 in
21:12 58.8 °F 57.1 °F 29.71 in Calm     94 % 0.00 in
21:15 58.8 °F 56.8 °F 29.71 in Calm     93 % 0.00 in
21:16 58.8 °F 56.8 °F 29.71 in Calm     93 % 0.00 in
21:17 58.8 °F 56.8 °F 29.71 in Calm     93 % 0.00 in
21:18 58.8 °F 56.8 °F 29.71 in Calm     93 % 0.00 in
21:21 58.8 °F 56.8 °F 29.71 in NNW 1.2 mph 1.2 mph 93 % 0.00 in
21:22 58.8 °F 56.8 °F 29.70 in Calm     93 % 0.00 in
21:23 58.8 °F 56.8 °F 29.70 in NNW 1.2 mph 1.2 mph 93 % 0.00 in
21:24 58.8 °F 56.8 °F 29.70 in NNW 1.2 mph   93 % 0.00 in
21:26 58.9 °F 56.9 °F 29.70 in Calm     93 % 0.00 in
21:28 58.9 °F 56.6 °F 29.70 in Calm     92 % 0.00 in
21:30 59.0 °F 56.7 °F 29.70 in Calm     92 % 0.00 in
21:31 59.0 °F 56.7 °F 29.70 in Calm     92 % 0.00 in
21:33 59.1 °F 56.8 °F 29.70 in NW 1.2 mph 1.2 mph 92 % 0.00 in
21:34 59.2 °F 56.9 °F 29.70 in NW 1.0 mph 1.0 mph 92 % 0.00 in
21:35 59.2 °F 56.6 °F 29.70 in NW 1.2 mph 1.2 mph 91 % 0.00 in
21:36 59.3 °F 56.7 °F 29.70 in NW 1.2 mph   91 % 0.00 in
21:37 59.3 °F 56.7 °F 29.70 in NW 1.2 mph   91 % 0.00 in
21:38 59.4 °F 56.8 °F 29.70 in Calm     91 % 0.00 in
21:39 59.4 °F 56.8 °F 29.70 in Calm     91 % 0.00 in
21:41 59.4 °F 56.8 °F 29.70 in Calm     91 % 0.00 in
21:42 59.4 °F 56.8 °F 29.70 in Calm     91 % 0.00 in
21:43 59.4 °F 56.8 °F 29.70 in Calm     91 % 0.00 in
21:44 59.4 °F 56.8 °F 29.69 in NW 1.2 mph 1.2 mph 91 % 0.00 in
21:45 59.4 °F 56.8 °F 29.69 in Calm     91 % 0.00 in
21:46 59.4 °F 56.8 °F 29.69 in Calm     91 % 0.00 in
21:50 59.4 °F 56.8 °F 29.69 in Calm     91 % 0.00 in
21:55 59.5 °F 56.6 °F 29.69 in Calm     90 % 0.00 in
21:58 59.5 °F 56.6 °F 29.69 in Calm     90 % 0.00 in
21:59 59.5 °F 56.6 °F 29.69 in Calm     90 % 0.00 in
22:00 59.5 °F 56.6 °F 29.69 in Calm     90 % 0.00 in
22:02 59.5 °F 56.6 °F 29.68 in Calm     90 % 0.00 in
22:03 59.4 °F 56.5 °F 29.69 in Calm     90 % 0.00 in
22:04 59.4 °F 56.5 °F 29.68 in Calm     90 % 0.00 in
22:05 59.4 °F 56.5 °F 29.68 in Calm     90 % 0.00 in
22:06 59.3 °F 56.4 °F 29.68 in Calm     90 % 0.00 in
22:08 59.3 °F 56.4 °F 29.68 in Calm     90 % 0.00 in
22:11 59.2 °F 56.6 °F 29.68 in Calm     91 % 0.00 in
22:12 59.2 °F 56.6 °F 29.68 in Calm     91 % 0.00 in
22:13 59.2 °F 56.6 °F 29.68 in Calm     91 % 0.00 in
22:15 59.1 °F 56.5 °F 29.68 in Calm     91 % 0.00 in
22:16 59.0 °F 56.4 °F 29.68 in Calm     91 % 0.00 in
22:18 59.0 °F 56.4 °F 29.68 in Calm     91 % 0.00 in
22:20 59.0 °F 56.4 °F 29.68 in Calm     91 % 0.00 in
22:21 58.9 °F 56.3 °F 29.68 in Calm     91 % 0.00 in
22:22 58.9 °F 56.3 °F 29.68 in Calm     91 % 0.00 in
22:23 58.9 °F 56.3 °F 29.68 in Calm     91 % 0.00 in
22:25 58.9 °F 56.6 °F 29.68 in Calm     92 % 0.00 in
22:26 58.8 °F 56.5 °F 29.68 in Calm     92 % 0.00 in
22:27 58.9 °F 56.6 °F 29.68 in Calm     92 % 0.00 in
22:28 58.8 °F 56.5 °F 29.68 in Calm     92 % 0.00 in
22:29 58.8 °F 56.5 °F 29.68 in Calm     92 % 0.00 in
22:30 58.8 °F 56.5 °F 29.68 in Calm     92 % 0.00 in
22:32 58.8 °F 56.8 °F 29.68 in Calm     93 % 0.00 in
22:33 58.7 °F 56.7 °F 29.68 in Calm     93 % 0.00 in
22:34 58.6 °F 56.6 °F 29.68 in Calm     93 % 0.00 in
22:35 58.6 °F 56.6 °F 29.67 in Calm     93 % 0.00 in
22:36 58.5 °F 56.5 °F 29.67 in Calm     93 % 0.00 in
22:37 58.4 °F 56.4 °F 29.67 in Calm     93 % 0.00 in
22:38 58.4 °F 56.4 °F 29.67 in Calm     93 % 0.00 in
22:39 58.3 °F 56.3 °F 29.68 in Calm     93 % 0.00 in
22:43 58.2 °F 56.2 °F 29.67 in Calm     93 % 0.00 in
22:44 58.2 °F 56.2 °F 29.67 in Calm     93 % 0.00 in
22:45 58.1 °F 56.1 °F 29.67 in Calm     93 % 0.00 in
22:47 58.0 °F 56.0 °F 29.67 in Calm     93 % 0.00 in
22:49 58.0 °F 56.3 °F 29.67 in Calm     94 % 0.00 in
22:50 57.9 °F 56.2 °F 29.67 in Calm     94 % 0.00 in
22:51 57.9 °F 56.2 °F 29.67 in Calm     94 % 0.00 in
22:53 57.8 °F 56.1 °F 29.67 in Calm     94 % 0.00 in
22:56 57.7 °F 56.0 °F 29.67 in Calm     94 % 0.00 in
22:58 57.6 °F 55.9 °F 29.67 in Calm     94 % 0.00 in
22:59 57.6 °F 55.9 °F 29.67 in Calm     94 % 0.00 in
23:00 57.5 °F 55.8 °F 29.67 in Calm     94 % 0.00 in
23:02 57.4 °F 55.7 °F 29.67 in Calm     94 % 0.00 in
23:03 57.4 °F 55.7 °F 29.67 in Calm     94 % 0.00 in
23:04 57.4 °F 55.7 °F 29.67 in Calm     94 % 0.00 in
23:05 57.3 °F 55.6 °F 29.67 in Calm     94 % 0.00 in
23:07 57.2 °F 55.5 °F 29.66 in Calm     94 % 0.00 in
23:08 57.1 °F 55.4 °F 29.66 in Calm     94 % 0.00 in
23:09 57.0 °F 55.3 °F 29.66 in Calm     94 % 0.00 in
23:10 56.9 °F 55.2 °F 29.66 in Calm     94 % 0.00 in
23:12 56.8 °F 55.1 °F 29.66 in Calm     94 % 0.00 in
23:13 56.8 °F 55.1 °F 29.66 in Calm     94 % 0.00 in
23:14 56.7 °F 55.0 °F 29.66 in Calm     94 % 0.00 in
23:16 56.7 °F 55.3 °F 29.66 in Calm     95 % 0.00 in
23:19 56.6 °F 55.2 °F 29.66 in Calm     95 % 0.00 in
23:20 56.6 °F 55.2 °F 29.66 in Calm     95 % 0.00 in
23:21 56.6 °F 55.2 °F 29.65 in Calm     95 % 0.00 in
23:24 56.6 °F 55.2 °F 29.65 in Calm     95 % 0.00 in
23:25 56.6 °F 55.2 °F 29.65 in Calm     95 % 0.00 in
23:26 56.5 °F 55.1 °F 29.65 in Calm     95 % 0.00 in
23:29 56.5 °F 55.1 °F 29.65 in Calm     95 % 0.00 in
23:30 56.4 °F 55.0 °F 29.65 in Calm     95 % 0.00 in
23:31 56.4 °F 55.0 °F 29.65 in Calm     95 % 0.00 in
23:32 56.4 °F 55.0 °F 29.65 in Calm     95 % 0.00 in
23:35 56.2 °F 54.8 °F 29.65 in Calm     95 % 0.00 in
23:36 56.2 °F 54.8 °F 29.65 in Calm     95 % 0.00 in
23:37 56.2 °F 54.8 °F 29.65 in Calm     95 % 0.00 in
23:40 56.1 °F 54.7 °F 29.65 in Calm     95 % 0.00 in
23:41 56.1 °F 54.7 °F 29.65 in Calm     95 % 0.00 in
23:42 56.1 °F 54.7 °F 29.65 in Calm     95 % 0.00 in
23:43 56.1 °F 54.7 °F 29.65 in Calm     95 % 0.00 in
23:44 56.1 °F 54.7 °F 29.64 in Calm     95 % 0.00 in
23:45 56.1 °F 55.0 °F 29.64 in Calm     96 % 0.00 in
23:47 56.1 °F 55.0 °F 29.64 in Calm     96 % 0.00 in
23:49 56.1 °F 55.0 °F 29.64 in Calm     96 % 0.00 in
23:50 56.1 °F 55.0 °F 29.64 in Calm     96 % 0.00 in
23:51 56.1 °F 55.0 °F 29.64 in Calm     96 % 0.00 in
23:52 56.1 °F 55.0 °F 29.64 in Calm     96 % 0.00 in
23:53 56.1 °F 55.0 °F 29.64 in Calm     96 % 0.00 in
23:54 56.1 °F 55.0 °F 29.63 in Calm     96 % 0.00 in
23:58 56.2 °F 55.1 °F 29.63 in Calm     96 % 0.00 in
Park Place, Exeter, Tulare County, California, USA
Compliments of Weather Underground - 3.75 mb